Hourly Data Report for October 29, 2016

All times are specified in Local Standard Time (LST). Add 1 hour to adjust for Daylight Saving Time where and when it is observed.

POND INLET A
NUNAVUT

72°41'22.000" N
77°58'08.000" W
61.60 m
2403206
71095
YIO

Related Data

No related data is available for this station

Download Data

Hourly Data (October 2016)
Hourly Data Report for October 29, 2016
Temp Definition
°C
Dew Point Temp Definition
°C
Rel Hum Definition
%
Wind Dir Definition
10's deg

Wind Spd Definition
km/h
Visibility Definition
km
Stn Press Definition
kPa
Hmdx Definition


Wind Chill Definition


Weather Definition


TIME
00:00 Legend Double Dagger -6.0 -7.7 88 6 34 16.1 100.43   -15 LegendNANA
01:00 Legend Double Dagger -5.6 -8.5 80 5 17 16.1 100.45   -12 LegendNANA
02:00 Legend Double Dagger -5.0 -8.6 76 7 26 16.1 100.45   -12 LegendNANA
03:00 Legend Double Dagger -4.1 -8.3 73 8 30 16.1 100.42   -12 LegendNANA
04:00 Legend Double Dagger -4.4 -6.7 84 7 26 16.1 100.41   -12 Snow
05:00 Legend Double Dagger -3.3 -4.4 92 6 48 1.2 100.37   -12 Snow
06:00 Legend Double Dagger -3.3 -4.1 94 6 55 0.6 100.29   -13 Moderate Snow
07:00 Legend Double Dagger -3.3 -4.3 93 7 58 1.0 100.31   -13 Snow
08:00 Legend Double Dagger -3.3 -4.3 93 7 55 0.8 100.31   -13 Moderate Snow
09:00 Legend Double Dagger -3.5 -4.2 95 6 45 0.4 100.30   -13 Heavy Snow
10:00 Legend Double Dagger -3.5 -4.2 95 6 48 0.4 100.21   -13 Heavy Snow
11:00 Legend Double Dagger -3.5 -4.2 95 6 46 0.8 100.27   -13 Moderate Snow
12:00 Legend Double Dagger -3.5 -4.2 95 6 28 1.0 100.28   -11 Snow
13:00 Legend Double Dagger -2.8 -4.3 90 6 48 1.2 100.21   -12 Snow
14:00 Legend Double Dagger -3.2 -3.9 95 6 45 0.8 100.20   -12 Moderate Snow
15:00 Legend Double Dagger -3.0 -3.7 95 6 50 0.4 100.12   -12 Heavy Snow
16:00 Legend Double Dagger -2.9 -3.9 93 5 43 1.2 100.23   -12 Snow
17:00 Legend Double Dagger -2.9 -3.9 93 6 63 0.6 100.09   -13 Moderate Snow
18:00 Legend Double Dagger -3.0 -3.7 95 6 48 1.0 100.19   -12 Snow
19:00 Legend Double Dagger -3.1 -3.5 97 6 39 1.0 100.28   -11 Snow
20:00 Legend Double Dagger -3.2 -3.9 95 5 41 1.2 100.27   -12 Snow
21:00 Legend Double Dagger -3.2 -3.8 96 5 41 1.2 100.27   -12 Snow
22:00 Legend Double Dagger -2.9 -3.3 97 5 41 1.2 100.27   -11 Snow
23:00 Legend Double Dagger -2.9 -3.5 96 5 39 1.2 100.26   -11 Snow

Notes on Data Quality.

Legend

  • E = Estimated
  • M = Missing
  • NA = Not Available
  • ‡ = Partner data that is not subject to review by the National Climate Archives
Date modified: